INTELSAT 36 (IS-36) (41747 NORAD) Tracking and Keplerian Element Data

This shows tracking and keplerian element data for the satellite.

Feedback or suggestion? Click here.




ElementValue
Catalog41747
NameINTELSAT 36 (IS-36)
Epoch Orbit848
Epoch Day348.57868529
Epoch Year2018
RAAN358.1983
Inclination0.0113
Eccentricity0.0001083
Argument of Perigee18.8082
Mean Anonmoly343.0107
Mean Motion1.00271675
Decay Rate-1.4E-07
L11 41747U 16053A 18348.57868529 -.00000014 00000-0 00000+0 0 9997
L22 41747 0.0113 358.1983 0001083 18.8082 343.0107 1.00271675 8483

Live tracking and technical data element details for INTELSAT 36 (IS-36) (NORAD 41747). INTELSAT 36 (IS-36) can be tracked NOW for your location showing map with azimuth and elevation plus other details from your city location.

Track the satellite on the map from your city or location and see movement details for azimuth, elevation, latitude, longitude, range, height, and movement on the map or in text.







IsCatalogInMostPopularTable: catalog: 41747, numindb: 123
Update: records affected: 1



GetName: 41747 INTELSAT 36 (IS-36)

Hit Count: updated at: Sun, 16 Dec 2018 10:51:04 GMT